TimeCST,TemperatureF,Dew PointF,Humidity,Sea Level PressureIn,VisibilityMPH,Wind Direction,Wind SpeedMPH,Gust SpeedMPH,PrecipitationIn,Events,Conditions,WindDirDegrees,DateUTC
12:15 AM,33.4,28.8,83,30.15,10.0,WNW,3.5,-,N/A,,Clear,290,2013-02-12 06:15:00
12:35 AM,34.9,28.9,79,30.15,10.0,WNW,3.5,-,N/A,,Clear,290,2013-02-12 06:35:00
12:55 AM,33.8,28.0,79,30.15,10.0,West,5.8,-,N/A,,Clear,260,2013-02-12 06:55:00
1:15 AM,34.2,28.4,79,30.15,10.0,West,6.9,-,N/A,,Clear,270,2013-02-12 07:15:00
1:35 AM,34.9,28.0,76,30.15,10.0,West,6.9,-,N/A,,Clear,280,2013-02-12 07:35:00
1:55 AM,33.8,27.9,79,30.16,10.0,WNW,3.5,-,N/A,,Clear,290,2013-02-12 07:55:00
2:15 AM,34.0,27.7,78,30.16,10.0,West,4.6,-,N/A,,Clear,280,2013-02-12 08:15:00
2:35 AM,31.8,26.2,80,30.16,10.0,Calm,Calm,-,N/A,,Clear,0,2013-02-12 08:35:00
2:55 AM,31.8,27.5,84,30.15,10.0,Calm,Calm,-,N/A,,Clear,0,2013-02-12 08:55:00
3:15 AM,31.3,27.5,86,30.15,10.0,Calm,Calm,-,N/A,,Clear,0,2013-02-12 09:15:00
3:35 AM,29.1,26.6,90,30.16,10.0,WSW,3.5,-,N/A,,Clear,250,2013-02-12 09:35:00
3:55 AM,29.5,27.1,91,30.16,10.0,West,3.5,-,N/A,,Clear,280,2013-02-12 09:55:00
4:15 AM,31.1,28.0,88,30.16,10.0,WNW,3.5,-,N/A,,Clear,300,2013-02-12 10:15:00
4:35 AM,28.8,26.6,92,30.15,10.0,Calm,Calm,-,N/A,,Clear,0,2013-02-12 10:35:00
4:55 AM,27.1,25.7,94,30.15,7.0,Calm,Calm,-,N/A,,Clear,0,2013-02-12 10:55:00
5:15 AM,28.0,26.6,94,30.16,7.0,Calm,Calm,-,N/A,,Clear,0,2013-02-12 11:15:00
5:35 AM,27.9,26.4,94,30.16,10.0,Calm,Calm,-,N/A,,Clear,0,2013-02-12 11:35:00
5:55 AM,27.3,25.7,94,30.17,7.0,Calm,Calm,-,N/A,,Clear,0,2013-02-12 11:55:00
6:15 AM,27.3,26.2,96,30.17,7.0,Calm,Calm,-,N/A,,Clear,0,2013-02-12 12:15:00
6:35 AM,26.6,25.0,94,30.17,7.0,Calm,Calm,-,N/A,,Clear,0,2013-02-12 12:35:00
6:55 AM,27.3,26.1,95,30.17,5.0,South,3.5,-,N/A,,Clear,180,2013-02-12 12:55:00
7:15 AM,27.7,26.2,94,30.17,5.0,Calm,Calm,-,N/A,,Clear,0,2013-02-12 13:15:00
7:35 AM,29.1,27.5,94,30.17,5.0,Calm,Calm,-,N/A,,Clear,0,2013-02-12 13:35:00
7:55 AM,31.6,29.3,91,30.17,5.0,Calm,Calm,-,N/A,,Clear,0,2013-02-12 13:55:00
8:15 AM,32.9,30.4,90,30.16,7.0,Calm,Calm,-,N/A,,Clear,0,2013-02-12 14:15:00
8:35 AM,34.3,28.8,80,30.17,10.0,Calm,Calm,-,N/A,,Clear,0,2013-02-12 14:35:00
8:55 AM,35.1,28.0,76,30.18,7.0,Calm,Calm,-,N/A,,Clear,0,2013-02-12 14:55:00
9:15 AM,35.8,28.2,74,30.16,10.0,Calm,Calm,-,N/A,,Clear,0,2013-02-12 15:15:00
9:35 AM,36.5,28.2,72,30.17,10.0,Calm,Calm,-,N/A,,Clear,0,2013-02-12 15:35:00
9:55 AM,38.1,28.9,70,30.17,10.0,Calm,Calm,-,N/A,,Clear,0,2013-02-12 15:55:00
10:15 AM,38.1,28.8,69,30.16,10.0,NW,4.6,-,N/A,,Clear,320,2013-02-12 16:15:00
10:35 AM,39.2,29.8,69,30.14,10.0,SW,3.5,-,N/A,,Clear,230,2013-02-12 16:35:00
10:55 AM,40.1,29.5,66,30.12,10.0,West,3.5,-,N/A,,Clear,260,2013-02-12 16:55:00
11:15 AM,41.4,30.4,65,30.11,10.0,Calm,Calm,-,N/A,,Clear,0,2013-02-12 17:15:00
11:35 AM,42.1,30.4,63,30.11,10.0,Calm,Calm,-,N/A,,Clear,0,2013-02-12 17:35:00
11:55 AM,43.2,30.4,61,30.11,10.0,WSW,4.6,-,N/A,,Clear,250,2013-02-12 17:55:00
12:15 PM,44.6,30.2,57,30.12,10.0,WSW,5.8,-,N/A,,Clear,240,2013-02-12 18:15:00
12:55 PM,45.3,30.4,56,30.10,10.0,West,5.8,-,N/A,,Clear,270,2013-02-12 18:55:00
1:15 PM,44.8,30.2,57,30.09,10.0,West,8.1,-,N/A,,Clear,280,2013-02-12 19:15:00
1:35 PM,45.3,29.7,54,30.09,10.0,West,5.8,-,N/A,,Clear,260,2013-02-12 19:35:00
1:55 PM,45.9,29.3,52,30.09,10.0,WSW,5.8,-,N/A,,Clear,250,2013-02-12 19:55:00
2:15 PM,46.4,30.6,54,30.08,10.0,SW,8.1,-,N/A,,Clear,230,2013-02-12 20:15:00
2:35 PM,46.9,30.6,53,30.07,10.0,SSW,5.8,-,N/A,,Clear,200,2013-02-12 20:35:00
2:55 PM,47.3,30.4,52,30.06,10.0,SSW,6.9,-,N/A,,Clear,200,2013-02-12 20:55:00
3:15 PM,47.3,29.1,49,30.05,10.0,SW,4.6,-,N/A,,Clear,230,2013-02-12 21:15:00
3:35 PM,46.6,30.7,54,30.04,10.0,West,6.9,-,N/A,,Clear,260,2013-02-12 21:35:00
3:55 PM,46.4,30.7,54,30.02,10.0,WSW,5.8,-,N/A,,Clear,250,2013-02-12 21:55:00
4:15 PM,46.4,31.6,56,30.02,10.0,West,5.8,-,N/A,,Clear,270,2013-02-12 22:15:00
4:35 PM,45.5,30.4,56,30.03,10.0,WNW,5.8,-,N/A,,Clear,290,2013-02-12 22:35:00
4:55 PM,44.6,31.3,60,30.03,10.0,WNW,3.5,-,N/A,,Clear,290,2013-02-12 22:55:00
5:15 PM,43.2,31.6,64,30.02,10.0,WNW,3.5,-,N/A,,Clear,300,2013-02-12 23:15:00
5:35 PM,43.3,31.8,64,30.01,10.0,Calm,Calm,-,N/A,,Clear,0,2013-02-12 23:35:00
5:55 PM,41.7,31.8,68,30.02,10.0,Calm,Calm,-,N/A,,Clear,0,2013-02-12 23:55:00
6:15 PM,39.6,32.0,74,30.02,10.0,Calm,Calm,-,N/A,,Clear,0,2013-02-13 00:15:00
6:35 PM,38.5,31.8,77,30.01,10.0,Calm,Calm,-,N/A,,Clear,0,2013-02-13 00:35:00
6:55 PM,38.1,32.0,79,30.00,10.0,Calm,Calm,-,N/A,,Clear,0,2013-02-13 00:55:00
7:15 PM,39.2,32.0,75,29.99,10.0,NNW,3.5,-,N/A,,Clear,330,2013-02-13 01:15:00
7:55 PM,38.8,31.3,74,29.98,10.0,NNW,3.5,-,N/A,,Clear,340,2013-02-13 01:55:00
8:15 PM,39.2,31.5,74,29.97,10.0,NNW,4.6,-,N/A,,Clear,340,2013-02-13 02:15:00
8:35 PM,39.4,31.5,73,29.98,10.0,NW,4.6,-,N/A,,Clear,320,2013-02-13 02:35:00
8:55 PM,38.5,31.3,75,29.98,10.0,NW,3.5,-,N/A,,Clear,310,2013-02-13 02:55:00
9:15 PM,38.3,31.1,75,29.98,10.0,NW,4.6,-,N/A,,Scattered Clouds,320,2013-02-13 03:15:00
9:35 PM,37.4,31.3,79,29.96,10.0,North,5.8,-,N/A,,Mostly Cloudy,350,2013-02-13 03:35:00
9:55 PM,37.4,31.3,79,29.96,10.0,North,6.9,-,N/A,,Overcast,360,2013-02-13 03:55:00
10:15 PM,37.4,32.0,81,29.96,10.0,North,5.8,-,N/A,,Overcast,350,2013-02-13 04:15:00
10:35 PM,37.4,32.0,81,29.95,10.0,North,4.6,-,N/A,,Overcast,360,2013-02-13 04:35:00
10:55 PM,36.9,32.0,83,29.95,7.0,North,3.5,-,N/A,,Overcast,360,2013-02-13 04:55:00
11:15 PM,36.7,32.0,83,29.94,7.0,North,4.6,-,N/A,,Overcast,360,2013-02-13 05:15:00
11:55 PM,36.0,32.0,86,29.94,7.0,NNW,5.8,-,N/A,,Overcast,330,2013-02-13 05:55:00